Погода в Уорике

Австралия     28°13′11″S   152°01′41″E
темп.,
°C
ветер,
м/с
пор.,
м/с
влажн.,
%
обл.,
%
осадки,
мм/ч
давл.,
гПа
погр.,
м
4 марта, чт
чт401:00+16юв499444 0.1 1012381
04:00+16юв599171 0.2 1012435
07:00+17вюв5108923 0.0 1013614
10:00+21вюв576731 0.0 10131013
13:00+25юв445527 0.1 10111325
16:00+24юв435613 0.3 10091321
19:00+17вюв24905 0.5 1011110
22:00+15вюв139823 0.5 101270
5 марта, пт
пт501:00+14юв129816 0.0 101126
04:00+13юв119814 0.0 101023
07:00+15ю01911 0.0 101155
10:00+24зюз35551 0.0 10101371
13:00+26юз455057 0.1 10061776
16:00+25зюз565367 0.1 10051454
19:00+20зюз23672 0.0 100676
22:00+18юв6137820 0.0 1009603
6 марта, сб
сб601:00+17юв512860 0.0 1008541
04:00+16вюв412955 0.0 1008486
07:00+17юв6128727 0.0 1010554
10:00+22вюв586639 0.0 1010861
13:00+26юв43511 0.0 10091319
16:00+21юв687412 0.6 1009626
19:00+16вюв510890 0.4 1011478
22:00+16вюв6118618 0.4 1013717
7 марта, вс
вс701:00+15вюв5118782 0.0 1013617
04:00+15юв598483 0.0 1013625
07:00+15юв488295 0.0 1015415
10:00+21вюв456351 0.0 1015811
13:00+24вюв225652 0.1 10131233
16:00+24с116356 1.1 1012924
19:00+17в129155 0.9 101432
22:00+15юв239755 0.9 1016106
8 марта, пн
пн801:00+14вюв229944 0.0 101569
04:00+13вюв129835 0.0 101663
07:00+15юв119453 0.0 1017119
10:00+22ссз126973 0.0 1017742
13:00+25сз3355100 0.4 10141133
16:00+23с127293 5.0 1012302
19:00+18в128747 1.8 101424
22:00+17в229432 2.1 101549